Flag for Spain Weather past 2 weeks in Barcelona, Barcelona, Spain

Now
50 °F

Passing clouds.


Feels Like: 46 °F
Forecast: 43 / 59 °F
Wind: 10 mph from Northwest

Location: Barcelona Airport

Current Time: Dec 21, 2014 at 8:06:58 PM

Latest Report: Dec 21, 2014 at 7:30 PM


Visibility: N/A

Pressure: 30.45 "Hg

Humidity: 71%

Dew point: 41 °F

Location of BarcelonaLocation

Historic Weather in Barcelona — Graph

°F

Barcelona temperature yesterday

Maximum temperature yesterday: 57 °F (at 1:30 PM)
Minimum temperature yesterday: 48 °F (at 11:30 PM)
Average temperature yesterday: 52 °F

Past Weeks' High & Low Weather Summary

 TemperatureHumidityPressure
High64 °F (Dec 18, 3:00 PM)94% (Dec 13, 12:00 AM)30.48 "Hg (Dec 13, 12:00 AM)
Low41 °F (Dec 10, 5:00 AM)16% (Dec 9, 2:30 PM)29.89 "Hg (Dec 16, 2:30 PM)
Average51 °F71%30.16 "Hg
* Reported Dec 6 7:00 PM — Dec 21 7:00 PM, Barcelona, Weather by CustomWeather, © 2014

Note: Actual official high and low records may vary slightly from our data, if they occured in-between our weather recording intervals... More about our weather records

Advertising

Barcelona weather history for previous 24 hours

 ConditionsComfort  
Time TempWeatherWind HumidityBarometerVisibility
7:00 PM
Dec 21
50 °FPassing clouds.12 mph76%30.45 "HgN/A
6:30 PM52 °FClear.10 mph72%30.45 "Hg10 mi
6:00 PM52 °FClear.12 mph72%30.45 "Hg10 mi
5:30 PM54 °FPassing clouds.10 mph67%30.45 "HgN/A
5:00 PM55 °FPassing clouds.9 mph67%30.42 "HgN/A
4:30 PM57 °FPassing clouds.10 mph67%30.42 "HgN/A
4:00 PM57 °FPassing clouds.9 mph63%30.42 "HgN/A
3:30 PM59 °FPassing clouds.12 mph55%30.42 "HgN/A
3:00 PM59 °FPassing clouds.6 mph55%30.42 "HgN/A
2:30 PM57 °FPassing clouds.8 mph63%30.42 "HgN/A
2:00 PM57 °FSunny.9 mph59%30.42 "Hg10 mi
1:30 PM55 °FPassing clouds.12 mph63%30.45 "HgN/A
1:00 PM54 °FSunny.12 mph67%30.45 "Hg10 mi
12:30 PM52 °FPassing clouds.13 mph67%30.45 "HgN/A
12:00 PM52 °FPassing clouds.13 mph67%30.48 "HgN/A
11:30 AM50 °FPassing clouds.16 mph71%30.48 "HgN/A
11:00 AM50 °FPassing clouds.16 mph67%30.48 "HgN/A
10:30 AM48 °FPassing clouds.17 mph71%30.48 "HgN/A
10:00 AM46 °FSunny.16 mph76%30.45 "Hg10 mi
9:30 AM46 °FPassing clouds.17 mph76%30.45 "HgN/A
9:00 AM45 °FSunny.17 mph81%30.45 "Hg10 mi
8:30 AM45 °FSunny.16 mph81%30.45 "Hg10 mi
8:00 AM45 °FClear.18 mph81%30.45 "Hg10 mi
7:30 AM45 °FClear.17 mph81%30.45 "Hg10 mi
7:00 AM45 °FClear.16 mph81%30.42 "Hg10 mi
6:30 AM45 °FClear.17 mph87%30.42 "Hg10 mi
6:00 AM45 °FClear.17 mph87%30.42 "Hg10 mi
5:30 AM46 °FClear.15 mph82%30.42 "Hg10 mi
5:00 AM46 °FClear.17 mph82%30.42 "Hg10 mi
4:30 AM46 °FClear.17 mph82%30.42 "Hg10 mi
3:30 AM46 °FClear.17 mph82%30.42 "Hg10 mi
3:00 AM46 °FClear.16 mph82%30.42 "Hg10 mi
2:30 AM46 °FClear.16 mph87%30.42 "Hg10 mi
2:00 AM46 °FClear.15 mph87%30.42 "Hg10 mi
1:00 AM48 °FClear.14 mph82%30.45 "Hg10 mi
12:30 AM48 °FClear.13 mph82%30.45 "Hg10 mi
12:00 AM48 °FClear.12 mph82%30.45 "Hg10 mi
11:30 PM
Dec 20
48 °FClear.13 mph82%30.45 "Hg10 mi
10:30 PM50 °FPassing clouds.14 mph76%30.45 "HgN/A
9:30 PM50 °FPassing clouds.16 mph82%30.42 "HgN/A
9:00 PM50 °FPassing clouds.16 mph82%30.42 "HgN/A
8:30 PM50 °FPassing clouds.16 mph82%30.42 "HgN/A
8:00 PM52 °FPassing clouds.16 mph77%30.42 "HgN/A
Weather by CustomWeather, © 2014

See weather overviewHow to use our weather pages